Showing default

NUSAT-34 (AMELIA EARHART, 55045

Orbit data source: Space-Track

NUSAT-34 (AMELIA EARHART, 55045 is a payload satellite owned by URUGUS S.A. (AR) in SSO that was launched on Tue, 03 Jan 2023 UTC via an FALCON 9 launch vehicle from the Air Force Eastern Test Range (AFETR). Payload-class satellites include a variety of spacecraft equipped with specific instruments for various scientific and technological missions. These include communications satellites like Starlink; space stations such as the ISS; scientific satellites like the Hubble; Earth observation satellites from companies like Planet Labs, Umbra, and HawkEye 360; GPS; miniature CubeSats for education and research; and military/defense satellites.

Loading next visibility...
Identifier
55045, 2023-001AN
Orbit
SSO
Country
Flag of UnknownUnknown / ARGN
Related business
Manufacturer
URUGUS S.A.
Mission
Operational Commercial Imaging
Bus & Motor
NEWSAT V, Unknown motor
Mass
41.5 kg wet, 38.5 kg dry
Launch date (UTC)
2023-01-03 (3 years ago)
Launch vehicle
FALCON 9
Launch site
Air Force Eastern Test Range (AFETR)
Object type
Payload
Rocket body
Debris
Shape & HBR
Box, 0.4 m
Radar Cross Section
0.542 m², Medium (>0.1 m² and < 1m²)

Expand to show TLE details & history
Last TLE update: 16 hours ago

TLE from 16 hours ago
0 NUSAT-34 (AMELIA EARHART
1 55045U 23001AN  25261.25394325  .00010673  00000-0  41320-3 0  9994
2 55045  97.3688 323.2101 0006663 340.6619  19.4366 15.26341484150748
Epoch: 2025-09-18T06:05Z
TLE epoch observation values (Epoch: 2025-09-18T06:05:40.696Z)
Latitude
-0.00003°
Longitude
-125.62765°
Altitude
485.546 km
Speed
7.625 km/s
True Right ascension
21h 32m 50s
True Declination
0° 00' 00"
Sunlit
Object was in full shadow at epoch
Visualization orbit readout
Latitude
Unknown
Longitude
Unknown
Altitude
Unknown
Speed
Unknown
Apparent Right ascension
Unknown
Apparent Declination
Unknown
Sunlit
N/A
Visualization observer readout
Local Sidereal Time
15:24:56
Azimuth
Unknown
Elevation
Unknown
Doppler factor
Unknown
Orbital elements
Apogee altitude
488.288 km
Perigee altitude
479.144 km
Semi-major axis
6,861.853 km
Eccentricity
0.00067
Inclination
97.3688°
RAAN
323.2101°
Arg. of periapsis
340.6619°
True anomaly
19.46203°
Mean anomaly
19.4366°
Eccentric anomaly
19.44931°
Mean motion
3.8184 °/min
Orbital period
94.28 mins
BSTAR
0.0004132
Loading maneuver chart data...
Computing Atmospheric mass density...
Loading historical data...
Loading historical data...
Loading historical data...
Loading historical data...
Loading historical data...
Loading historical data...
Loading historical data...

Documentation

Showing up to 5 results
|